User: anonymous   Login
Location: Palmerston North
(40.3500°S, 175.6170°E)
Time: 08:26:40
(UTC+13:00)
Language:

XW-2B - Orbit

View from above orbital plane
View from above orbital plane
View from above satellite
View from above satellite

Ground track
Ground track

The orbit data is extracted from the following two-line orbital elements,

1 40911U 15049N   24327.12055396  .12214391  26469-5  35889-3 0  9994
2 40911  97.4275 356.1976 0007819 246.3878 113.6603 16.44746485509295
Epoch (UTC): 22 November 2024 02:53:35
Eccentricity: 0.0007819
inclination: 97.4275°
perigee height: 148 km
apogee height: 158 km
right ascension of ascending node: 356.1976°
argument of perigee: 246.3878°
revolutions per day: 16.44746485
mean anomaly at epoch: 113.6603°
orbit number at epoch: 50929

The dashed part of the orbit path shows where the satellite is in the earth's shadow,  

DLR